Location: Unspecified
(43.3830°N, 0.0000°E)
Time: 16:59:35
(UTC+00:00)

Explorer 7 - Pass Details

Date: 30 June 2019
Orbit: 485 x 680 km, 50.3° (Epoch: 17 July)

Event Time Altitude Azimuth Distance (km) Brightness Sun altitude
Rises 07:39:13 0° 272° (W) 2,697 9.8 32.8°
Reaches altitude 10° 07:41:31 10° 281° (W) 1,838 9.1 33.2°
Maximum altitude 07:45:26 37° 349° (N) 917 8.2 33.9°
Drops below altitude 10° 07:49:35 10° 58° (ENE) 1,959 10.6 34.6°
Sets 07:52:07 0° 66° (ENE) 2,900 11.4 35.1°
